カタログに戻る

CZ-4 DEB

運用中SSO
NORAD 20912·DEBRIS·🇨🇳 China

打ち上げ Sep 3, 1990 から Taiyuan Satellite Launch Center

Loading…

次のパス (今後24時間)

TLE

最新Source: Space-Track

元期: Sep 14, 2026, 18:33 UTC

1 20912U 90081BV  26257.77336737  .00001040  00000-0  36440-3 0  9992
2 20912  98.5487 257.0919 0013318   9.0273 166.4660 14.37127746862420

AllMySatでCZ-4 DEBをリアルタイム追跡

Download on the App Store